EHI
0 0 0 0 0 0 0 0 0 0 0 0 0 0 0 0 0 0 0 0 0 0 0 0 0 0 0 0 0 0 0 0 0 0 0 0 0 0 0 0 0 0 0 0
0 0 0 0 0 0 0 0 0 0 0 0 0 0 0 0 0 0 0 0 0 0 0 0 0 0 0 0 0 0 0 0 0 0 0 0 0 0 0 0 0 0 0 0
0 0 0 0 0 0 0 0 0 0 0 0 0 0 0 0 0 0 0 0 0 0 0 0 0 0 0 0 0 0 0 0 0 0 0 0 0 0 0 0 0 0 0 0
0 0 0 0 0 0 0 0 0 0 0 0 0 0 0 0 0 0 0 0 0 0 0 0 0 0 0 0 0 0 0 0 0 0 0 0 0 0 0 0 0 0 0 0
0 0 0 0 0 0 0 0 0 0 0 0 0 0 0 0 0 0 0 0 0 0 0 0 0 0 0 0 0 0 0 0 0 0 0 0 0 0 0 0 0 0 0 0
0 0 0 0 0 0 0 0 0 0 0 0 0 0 0 0 0 0 0 0 0 0 0 0 0 0 0 0 0 0 0 0 0 0 0 0 0 0 0 0 0 0 0 0
0 0 0 0 0 0 0 0 0 0 0 0 0 0 0 0 0 0 0 0 0 0 0 0 0 0 0 0 0 0 0 0 0 0 0 0 0 0 0 0 0 0 0 0
0 0 0 0 0 0 0 0 0 0 0 0 0 0 0 0 0 0 0 0 0 0 0 0 0 0 0 0 0 0 0 0 0 0 0 0 0 0 0 0 0 0 0 0
0 0 0 0 0 0 0 0 0 0 0 0 0 0 0 0 0 0 0 0 0 0 0 0 0 0 0 0 0 0 0 0 0 0 0 0 0 0 0 0 0 0 0 0
0 0 0 0 0 0 0 0 0 0 0 0 0 0 0 0 0 0 0 0 0 0 0 0 0 0 0 0 0 0 0 0 0 0 0 0 0 0 0 0 0 0 0 0
0 0 0 0 0 0 0 0 0 0 0 0 0 0 0 0 0 0 0 0 0 0 0 0 0 0 0 0 0 0 0 0 0 0 0 0 0 0 0 0 0 0 0 0
0 0 0 0 0 0 0 0 0 0 0 0 0 0 0 0 0 0 0 0 0 0 0 0 0 0 0 0 0 0 0 0 0 0 0 0 0 0 0 0 0 0 0 0
0 0 0 0 0 0 0 0 0 0 0 0 0 0 0 0 0 0 0 0 0 0 0 0 0 0 0 0 0 0 0 0 0 0 0 0 0 0 0 0 0 0 0 0
0 0 0 0 0 0 0 0 0 0 0 0 0 0 0 0 0 0 0 0 0 0 0 0 0 0 0 0 0 0 0 0 0 0 0 0 0 0 0 0 0 0 0 0
0 0 0 0 0 0 0 0 0 0 0 0 0 0 0 0 0 0 0 0 0 0 0 0 0 0 0 0 0 0 0 0 0 0 0 0 0 0 0 0 0 0 0 0
0 0 0 0 0 0 0 0 0 0 0 0 0 0 0 0 0 0 0 0 0 0 0 0 0 0 0 0 0 0 0 0 0 0 0 0 0 0 0 0 0 0 0 0
0 0 0 0 0 0 0 0 0 0 0 0 0 0 0 0 0 0 0 0 0 0 0 0 0 0 0 0 0 0 0 0 0 0 0 0 0 0 0 0 0 0 0 0
0 0 0 0 0 0 0 0 0 0 0 0 0 0 0 0 0 0 0 0 0 0 0 0 0 0 0 0 0 0 0 0 0 0 0 0 0 0 0 0 0 0 0 0
0 0 0 0 0 0 0 0 0 0 0 0 0 0 0 0 0 0 0 0 0 0 0 0 0 0 0 0 0 0 0 0 0 0 0 0 0 0 0 0 0 0 0 0
0 0 0 0 0 0 0 0 0 0 0 0 0 0 0 0 0 0 0 0 0 0 0 0 0 0 0 0 0 0 0 0 0 0 0 0 0 0 0 0 0 0 0 0
0 0 0 0 0 0 0 0 0 0 0 0 0 0 0 0 0 0 0 0 0 0 0 0 0 0 0 0 0 0 0 0 0 0 0 0 0 0 0 0 0 0 0 0
0 0 0 0 0 0 0 0 0 0 0 0 0 0 0 0 0 0 0 0 0 0 0 0 0 0 0 0 0 0 0 0 0 0 0 0 0 0 0 0 0 0 0 0
0 0 0 0 0 0 0 0 0 0 0 0 0 0 0 0 0 0 0 0 0 0 0 0 0 0 0 0 0 0 0 0 0 0 0 0 0 0 0 0 0 0 0 0
0 0 0 0 0 0 0 0 0 0 0 0 0 0 0 0 0 0 0 0 0 0 0 0 0 0 0 0 0 0 0 0 0 0 0 0 0 0 0 0 0 0 0 0
0 0 0 0 0 0 0 0 0 0 0 0 0 0 0 0 0 0 0 0 0 0 0 0 0 0 0 0 0 0 0 0 0 0 0 0 0 0 0 0 0 0 0 0
0 0 0 0 0 0 0 0 0 0 0 0 0 0 0 0 0 0 0 0 0 0 0 0 0 0 0 0 0 0 0 0 0 0 0 0 0 0 0 0 0 0 0 0
0 0 0 0 0 0 0 0 0 0 0 0 0 0 0 0 0 0 0 0 0 0 0 0 0 0 0 0 0 0 0 0 0 0 0 0 0 0 0 0 0 0 0 0
Wind_Speed
3 1 2 4 8 10 11 10 7 7 7 4 6 7 8 8 8 8 8 7 6 6 4 4 3 2 2 1 1 1 2 3 4 4 5 5 6 6 7 7 8 8 9 9
3 2 1 4 6 9 11 11 12 11 11 3 2 4 6 7 8 8 8 7 6 5 4 3 2 2 1 1 1 1 3 4 5 5 5 6 6 7 7 8 8 8 9 9
3 3 1 7 10 12 10 8 8 11 8 1 2 4 5 6 8 7 7 6 6 5 4 3 2 1 1 1 1 2 4 5 5 5 6 6 7 7 8 8 8 8 8 9
2 2 7 7 1 3 6 9 9 7 3 3 4 4 3 4 7 7 7 6 5 4 3 2 1 1 0 1 2 4 5 6 6 6 6 7 7 8 8 7 7 8 8 9
3 4 8 5 4 3 3 5 6 6 4 5 7 5 1 3 6 6 7 6 5 4 3 1 1 1 1 2 4 5 6 6 6 6 7 7 8 9 8 7 8 8 8 9
4 4 7 3 2 2 2 5 3 4 5 8 8 4 4 6 8 7 7 5 4 3 2 1 0 0 1 4 5 6 6 6 6 6 7 8 9 9 8 7 8 8 9 9
5 5 8 2 4 4 4 5 1 3 5 8 7 5 5 8 7 6 6 4 3 2 1 1 1 1 3 5 6 6 6 6 6 7 8 9 8 8 8 8 8 8 9 9
5 6 9 6 6 7 4 2 2 2 4 6 7 7 7 7 6 5 4 3 2 1 1 1 2 2 5 6 6 5 6 6 7 8 8 7 8 8 8 8 9 9 9 9
8 8 2 7 5 3 3 3 2 3 4 7 7 6 6 5 5 4 3 2 1 1 2 3 3 3 6 6 6 6 7 7 8 8 8 7 8 8 8 7 7 8 8 9
3 3 5 5 3 3 2 3 4 5 5 6 6 6 6 4 4 3 2 1 1 1 3 4 4 5 6 7 6 6 7 8 7 8 8 7 6 6 6 7 7 8 9 10
4 2 3 4 5 5 4 4 5 5 5 5 6 6 5 3 3 2 1 1 1 2 4 6 6 7 7 7 6 7 8 8 8 7 8 7 7 7 8 8 10 12 9 9
5 4 5 4 5 6 6 6 6 6 5 5 5 5 4 3 2 1 1 1 2 4 5 6 7 7 7 7 6 7 7 7 6 6 6 7 8 9 13 15 22 24 23 21
2 2 3 4 5 6 6 6 6 6 6 6 4 4 4 2 1 1 2 3 4 5 6 7 7 8 8 7 7 7 8 8 7 7 7 7 7 9 11 13 17 21 23 25
4 4 3 2 3 5 7 7 6 6 5 5 4 4 3 1 1 2 3 4 5 6 7 7 8 9 8 7 7 8 8 9 9 7 7 7 8 8 9 12 13 10 13 21
3 3 4 5 6 6 7 7 6 5 5 4 3 3 2 1 2 3 4 5 6 7 7 8 8 9 8 7 7 8 7 7 7 7 7 8 8 9 10 11 12 12 10 11
4 4 5 6 7 6 6 6 5 5 4 3 2 1 1 2 3 5 6 5 6 7 8 8 9 10 8 8 7 7 7 14 14 9 8 8 9 9 10 11 11 11 11 10
6 5 6 6 6 6 5 4 4 4 3 2 1 1 1 3 5 6 6 5 6 8 8 9 10 9 8 7 7 7 7 9 16 12 8 9 9 10 10 11 11 11 11 13
4 4 5 6 6 6 5 5 4 4 2 1 1 1 3 4 6 7 7 7 8 9 9 9 9 8 7 7 7 6 7 7 7 9 9 9 11 10 10 11 11 13 11 12
5 6 7 7 6 6 5 4 3 2 1 1 1 3 4 5 6 7 7 7 9 11 10 8 13 10 8 9 12 7 7 8 9 10 10 15 14 10 10 10 11 11 11 11
8 8 8 7 6 5 4 3 2 1 0 1 2 4 6 7 6 7 7 8 8 8 9 10 10 8 8 9 14 7 8 9 11 11 11 10 10 10 10 11 11 11 11 11
7 7 6 6 5 4 3 2 1 1 2 2 4 6 7 8 7 7 8 10 9 8 9 14 9 7 7 10 14 8 9 10 11 11 11 10 10 11 11 11 11 12 11 11
5 5 5 4 4 3 2 2 1 2 3 4 5 6 7 8 8 8 8 9 9 13 9 6 6 11 16 18 9 8 9 10 10 10 10 10 10 11 11 12 11 11 11 10
4 4 4 3 2 1 2 2 3 3 5 6 6 7 8 8 6 8 10 7 6 13 10 7 14 22 25 14 8 9 10 10 10 10 10 10 10 10 11 12 11 11 10 10
4 4 3 2 1 2 3 4 4 4 5 6 7 8 8 7 7 6 7 12 16 18 10 13 23 25 24 9 8 8 9 9 9 10 10 10 10 10 10 11 11 11 11 12
2 1 0 1 2 2 4 4 5 5 6 5 7 7 6 5 7 7 7 9 15 17 10 14 22 23 14 8 8 9 9 9 11 11 10 10 10 10 10 11 11 11 11 11
0 1 1 2 3 3 3 3 4 4 5 6 6 5 5 5 6 7 7 9 11 16 12 8 10 13 8 8 9 10 9 11 11 10 10 11 11 11 11 11 13 11 11 11
1 2 2 2 3 3 3 3 4 5 5 6 8 7 6 7 7 8 9 9 9 9 8 8 8 8 9 9 9 10 9 9 9 10 10 10 10 10 11 12 11 11 11 11
Wind_Direction
261 83 152 203 200 200 213 226 235 249 259 234 188 178 171 161 155 152 153 157 160 160 156 151 157 158 148 168 210 236 269 275 275 281 285 286 285 285 285 284 286 284 284 282
252 172 235 263 237 219 221 231 243 263 273 294 123 141 151 157 157 158 159 160 157 150 146 147 143 134 127 227 259 271 275 276 280 282 282 280 281 282 284 284 283 284 283 283
240 159 281 254 227 222 222 219 219 241 253 175 144 156 167 161 155 155 152 147 147 147 145 134 126 122 185 259 298 290 277 277 278 277 279 279 282 285 284 284 284 284 284 285
191 143 238 242 150 205 229 238 221 226 193 149 138 118 100 126 143 143 136 132 132 127 122 120 120 128 163 283 283 277 275 274 274 275 277 280 282 282 281 280 282 283 285 285
168 222 262 248 194 176 204 262 226 217 192 136 105 82 64 97 105 116 117 116 116 115 118 126 156 185 234 277 276 274 272 271 273 276 280 283 282 281 280 281 282 281 283 285
172 206 237 239 123 96 112 271 239 180 162 140 124 158 215 135 108 103 103 104 108 109 113 143 233 97 281 276 277 274 271 273 278 279 279 279 277 278 279 277 278 281 284 284
194 217 254 192 146 129 173 240 115 132 147 149 165 175 135 117 109 110 111 113 115 121 160 225 263 290 272 271 268 269 276 282 283 280 277 276 277 276 278 279 280 281 285 285
185 213 244 163 153 187 205 154 133 136 140 137 123 112 113 114 117 120 124 129 129 142 251 267 265 262 266 268 270 279 284 282 280 278 278 282 279 280 279 281 284 285 286 287
193 210 212 162 175 158 131 147 144 136 124 127 131 136 129 130 132 136 138 145 156 214 264 272 268 264 271 276 281 284 282 280 279 280 277 277 279 284 286 283 282 284 284 286
243 215 174 180 159 157 165 153 132 125 123 127 135 135 136 138 138 139 146 169 204 254 271 278 281 277 271 275 278 278 279 281 281 283 283 281 280 280 281 280 281 283 284 286
240 229 154 198 198 179 161 131 120 114 116 125 127 131 133 135 137 141 155 196 240 262 270 274 278 275 274 276 279 279 278 280 282 282 283 285 281 276 281 270 275 286 283 280
214 202 184 201 183 164 156 155 143 129 117 110 119 127 123 128 129 135 189 252 267 267 267 273 278 280 280 279 276 276 280 280 280 282 281 281 285 288 281 282 290 290 290 290
154 81 96 107 129 141 146 140 130 130 131 125 117 118 120 124 133 183 251 262 264 267 272 278 281 282 282 281 279 275 276 280 282 280 281 282 284 289 294 293 288 290 292 294
115 106 112 120 128 120 118 117 113 112 115 120 118 116 116 130 201 251 263 268 273 278 279 279 280 280 283 285 283 279 278 282 285 279 277 279 282 284 287 293 297 291 288 292
149 138 141 129 119 111 114 118 122 125 124 120 121 127 141 199 254 267 273 277 279 278 278 280 283 285 288 287 284 282 282 280 279 277 277 280 282 284 285 286 289 293 292 291
136 120 124 132 135 132 134 139 140 142 136 128 128 143 189 248 266 271 273 273 278 280 281 282 281 283 285 284 283 284 281 287 292 289 284 284 285 286 287 288 289 291 292 292
141 154 156 154 150 148 145 139 134 130 125 131 153 197 264 276 278 277 279 281 279 277 278 278 279 282 282 281 283 283 282 286 291 292 285 284 285 284 285 285 286 289 290 292
145 142 142 143 140 133 124 113 108 113 129 160 198 260 273 276 279 283 286 289 288 284 279 276 278 283 284 285 286 282 281 281 282 283 284 284 284 282 283 285 288 290 293 296
100 99 95 96 103 108 108 107 109 116 147 196 255 273 277 277 278 281 287 290 289 289 286 280 291 294 287 286 293 282 280 283 285 285 284 287 290 286 285 287 289 291 293 294
87 87 88 86 87 97 104 105 102 89 314 311 290 283 281 280 282 285 286 280 272 270 278 287 291 286 285 285 294 283 281 284 287 289 288 286 287 288 288 290 291 292 292 291
96 95 95 95 93 91 90 78 52 330 310 296 278 275 277 281 283 283 285 286 283 278 284 294 295 287 288 291 296 288 286 287 288 290 291 291 292 292 291 291 292 293 292 292
100 98 95 90 83 67 45 25 341 301 293 286 280 278 281 285 285 281 269 271 283 293 296 287 287 294 299 302 294 290 288 288 289 290 290 290 292 293 294 294 293 293 293 293
92 89 83 75 64 21 338 318 294 281 278 279 280 281 279 278 280 285 290 284 286 299 302 289 297 303 305 305 293 291 290 289 290 290 290 289 289 290 292 294 294 294 293 292
78 73 67 47 20 332 303 292 284 276 273 274 272 271 273 282 282 269 271 293 302 303 299 298 304 307 309 303 293 290 289 289 289 289 290 290 290 291 292 293 294 292 291 292
82 74 20 328 307 282 278 288 294 289 283 278 277 275 269 264 276 287 287 290 298 304 300 302 306 308 307 293 291 290 290 288 291 295 294 296 295 294 293 293 293 293 293 292
51 302 281 271 265 270 278 284 285 287 290 292 290 286 284 284 285 290 292 293 293 300 302 297 297 300 295 291 291 292 292 296 298 296 292 292 293 293 293 293 292 292 292 291
306 292 291 292 285 274 274 278 283 287 289 290 294 295 295 296 295 294 295 296 297 297 296 296 295 295 296 295 294 293 293 293 293 292 293 293 293 292 293 292 292 293 293 291